sat.trackr.live / text

‹ back to catalog

KUIPER-00482

NORAD 68877 · 2026-095P

PAYLOAD ACTIVE UNKNOWN

§ Identity

Operator
Country
US
Launch date
2026-04-28
Launch site
AFETR
Launch vehicle
Mass (kg)
RCS (m²)

External: N2YO · Heavens-Above · Gunter

§ Orbital elements

Epoch: 2026-05-24T23:52:52.382208Z

Period
93.59 min
Inclination
51.8857°
Eccentricity
0.0002293
Mean motion
15.38625043 rev/d
Perigee alt
448.6 km
Apogee alt
451.7 km
Semi-major
6,828.3 km
B*
9.5538e-4
RAAN
354.3551°
Arg perigee
182.4525°
Mean anomaly
177.6452°
Rev number
416

§ Raw data

KUIPER-004821 68877U 26095P   26144.99505072  .00036808  00000+0  95538-3 0  99992 68877  51.8857 354.3551 0002293 182.4525 177.6452 15.38625043  4161

JSON: /api/v1/satellites/68877 · /tle

For live sub-satellite position, see the globe view (requires WebGL).

§ Visibility from observer

Set your observer location to see the next 7 days of passes ≥ 10°. The values pass through the URL so the page stays shareable.

No JS? Fill the form by hand. The geolocation button needs JavaScript.